Location: Bercimuel
(41.3983°N, 3.5711°W)
Time: 16:09:28
(UTC+00:00)

Cosmos 1452 Rocket - Pass Details

Date: 15 May 2026
Orbit: 763 x 770 km, 74.1° (Epoch: 10 June)

Event Time Altitude Azimuth Distance (km) Brightness Sun altitude
Rises 20:00:11 0° 205° (SSW) 3,211 6.7 -6.3°
Reaches altitude 10° 20:02:33 10° 208° (SSW) 2,289 5.9 -6.7°
Maximum altitude 20:07:43 67° 291° (WNW) 829 4.0 -7.5°
Drops below altitude 10° 20:12:56 10° 14° (NNE) 2,306 6.3 -8.3°
Sets 20:15:20 0° 17° (NNE) 3,237 7.0 -8.7°
